,,Stat1,,Stat2,,Stat3,,Stat4,,Wind1,,Wind1,
time,status,PR1M_SUM,status,RH1M_AVG,status,SR1M_AVG,status,TA1M_AVG,status,W1dAve1m,status,W1sAve1m,
1999-12-11, 00:01:00,VALID,0,VALID,94.6938,VALID,0.0339617,VALID,18.2835,VALID,188,VALID,0,
1999-12-11, 00:02:00,VALID,0,VALID,94.479,VALID,0.0169808,VALID,18.2863,VALID,188,VALID,0,
1999-12-11, 00:03:00,VALID,0,VALID,94.32,VALID,0.0339617,VALID,18.3054,VALID,188,VALID,0,
1999-12-11, 00:04:00,VALID,0,VALID,94.4281,VALID,0.0679233,VALID,18.3183,VALID,188,VALID,0,
1999-12-11, 00:05:00,VALID,0,VALID,94.3264,VALID,0.0169808,VALID,18.2925,VALID,188,VALID,0,
1999-12-11, 00:06:00,VALID,0,VALID,94.5705,VALID,0.101885,VALID,18.2505,VALID,188,VALID,0,
1999-12-11, 00:07:01,VALID,0,VALID,94.7015,VALID,0.0509425,VALID,18.1898,VALID,185,VALID,0,
1999-12-11, 00:08:01,VALID,0,VALID,95.0041,VALID,0.0169808,VALID,18.1219,VALID,186,VALID,0,
1999-12-11, 00:09:00,VALID,0,VALID,95.4047,VALID,0.0849042,VALID,18.0993,VALID,186,VALID,0,
1999-12-11, 00:10:00,VALID,0,VALID,95.6552,VALID,0.0509425,VALID,18.0598,VALID,186,VALID,0,
1999-12-11, 00:11:00,VALID,0,VALID,95.4161,VALID,0.0679233,VALID,18.0409,VALID,186,VALID,0,
1999-12-11, 00:12:00,VALID,0,VALID,95.453,VALID,0.0339617,VALID,17.9995,VALID,184,VALID,0,
1999-12-11, 00:13:00,VALID,0,VALID,95.7366,VALID,-0.0339617,VALID,17.981,VALID,174,VALID,0,
1999-12-11, 00:14:00,VALID,0,VALID,96.043,VALID,-0.0509425,VALID,17.945,VALID,173,VALID,0.550347,
1999-12-11, 00:15:00,VALID,0,VALID,96.0392,VALID,-0.0509425,VALID,17.939,VALID,177,VALID,0.20777,
1999-12-11, 00:16:00,VALID,0,VALID,95.912,VALID,-0.0679233,VALID,17.9226,VALID,180,VALID,0,
1999-12-11, 00:17:00,VALID,0,VALID,95.7137,VALID,-0.0509425,VALID,17.9065,VALID,201,VALID,0,
1999-12-11, 00:18:00,VALID,0,VALID,95.5535,VALID,-0.0679233,VALID,17.8679,VALID,214,VALID,0.491211,
1999-12-11, 00:19:01,VALID,0,VALID,95.6806,VALID,-0.0849042,VALID,17.8289,VALID,214,VALID,0.607666,
1999-12-11, 00:20:00,VALID,0,VALID,96.1257,VALID,-0.101885,VALID,17.7964,VALID,232,VALID,0.539063,
1999-12-11, 00:21:00,VALID,0,VALID,96.5135,VALID,-0.0849042,VALID,17.8033,VALID,241,VALID,0.524916,
1999-12-11, 00:22:00,VALID,0,VALID,96.628,VALID,-0.0339617,VALID,17.8093,VALID,215,VALID,0.0885417,
1999-12-11, 00:23:00,VALID,0,VALID,96.263,VALID,-0.0849042,VALID,17.8294,VALID,208,VALID,0.302576,
1999-12-11, 00:24:00,VALID,0,VALID,95.996,VALID,-0.0679233,VALID,17.8294,VALID,203,VALID,0.142634,
1999-12-11, 00:25:00,VALID,0,VALID,96.3024,VALID,-0.101885,VALID,17.8102,VALID,185,VALID,0.282227,
1999-12-11, 00:26:00,VALID,0,VALID,96.5644,VALID,-0.0849042,VALID,17.768,VALID,174,VALID,0.665625,
1999-12-11, 00:27:00,VALID,0,VALID,96.3495,VALID,-0.0509425,VALID,17.7126,VALID,168,VALID,0.558838,
1999-12-11, 00:28:00,VALID,0,VALID,96.5021,VALID,0.0339617,VALID,17.6537,VALID,166,VALID,0.556166,
1999-12-11, 00:29:00,VALID,0,VALID,97.2091,VALID,0.0849042,VALID,17.6214,VALID,166,VALID,0.770059,
1999-12-11, 00:30:01,VALID,0,VALID,97.6071,VALID,0,VALID,17.6309,VALID,166,VALID,0.81684,
1999-12-11, 00:31:00,VALID,0,VALID,97.7584,VALID,0.0169808,VALID,17.6473,VALID,166,VALID,0.770481,
1999-12-11, 00:32:00,VALID,0,VALID,97.9136,VALID,0.0339617,VALID,17.6727,VALID,166,VALID,0.653571,
1999-12-11, 00:33:00,VALID,0,VALID,97.5105,VALID,0.0679233,VALID,17.6761,VALID,187,VALID,0.210156,
1999-12-11, 00:34:00,VALID,0,VALID,97.1722,VALID,0.0339617,VALID,17.6697,VALID,197,VALID,0.0777344,
1999-12-11, 00:35:00,VALID,0,VALID,96.9598,VALID,0.0169808,VALID,17.6669,VALID,219,VALID,0.418701,
1999-12-11, 00:36:00,VALID,0,VALID,96.6839,VALID,0.0339617,VALID,17.644,VALID,227,VALID,0.509924,
1999-12-11, 00:37:00,VALID,0,VALID,96.8848,VALID,0.0339617,VALID,17.6309,VALID,230,VALID,0.398015,
1999-12-11, 00:38:00,VALID,0,VALID,97.1633,VALID,0.0339617,VALID,17.6376,VALID,237,VALID,0.317925,
1999-12-11, 00:39:00,VALID,0,VALID,97.1124,VALID,0.0339617,VALID,17.6277,VALID,239,VALID,0.368032,
1999-12-11, 00:40:00,VALID,0,VALID,97.0959,VALID,0.0169808,VALID,17.6313,VALID,239,VALID,0.264509,
1999-12-11, 00:41:01,VALID,0,VALID,97.4253,VALID,0.0169808,VALID,17.654,VALID,239,VALID,0.120898,
1999-12-11, 00:42:00,VALID,0,VALID,97.4736,VALID,-0.0169808,VALID,17.6798,VALID,239,VALID,0.12207,
1999-12-11, 00:43:00,VALID,0,VALID,97.1862,VALID,-0.0339617,VALID,17.7038,VALID,237,VALID,0.202148,
1999-12-11, 00:44:00,VALID,0,VALID,96.6432,VALID,-0.0849042,VALID,17.6609,VALID,227,VALID,0.263725,
1999-12-11, 00:45:00,VALID,0,VALID,96.8429,VALID,-0.0509425,VALID,17.6777,VALID,216,VALID,0.0403294,
1999-12-11, 00:46:00,VALID,0,VALID,97.246,VALID,-0.0849042,VALID,17.6874,VALID,216,VALID,0,
1999-12-11, 00:47:00,VALID,0,VALID,97.1557,VALID,-0.0679233,VALID,17.7033,VALID,216,VALID,0,
1999-12-11, 00:48:00,VALID,0,VALID,96.9293,VALID,0.0169808,VALID,17.6964,VALID,216,VALID,0,
1999-12-11, 00:49:00,VALID,0,VALID,97.1519,VALID,0.0339617,VALID,17.6826,VALID,216,VALID,0,
1999-12-11, 00:50:00,VALID,0,VALID,97.2688,VALID,0.0509425,VALID,17.6927,VALID,206,VALID,0,
1999-12-11, 00:51:00,VALID,0,VALID,96.8479,VALID,0.101885,VALID,17.6701,VALID,195,VALID,0,
1999-12-11, 00:52:00,VALID,0,VALID,96.5402,VALID,0.0339617,VALID,17.6311,VALID,181,VALID,0,
1999-12-11, 00:53:00,VALID,0,VALID,97.2701,VALID,0.0509425,VALID,17.6212,VALID,167,VALID,0.285262,
1999-12-11, 00:54:00,VALID,0,VALID,97.4952,VALID,0.0679233,VALID,17.6182,VALID,167,VALID,0.58724,
1999-12-11, 00:55:00,VALID,0,VALID,97.4024,VALID,0.0849042,VALID,17.602,VALID,167,VALID,0.532939,
1999-12-11, 00:56:00,VALID,0,VALID,97.4087,VALID,0.0849042,VALID,17.5757,VALID,167,VALID,0.405357,
1999-12-11, 00:57:00,VALID,0,VALID,97.2968,VALID,0.0679233,VALID,17.5374,VALID,167,VALID,0.378125,
1999-12-11, 00:58:00,VALID,0,VALID,97.4418,VALID,0.0339617,VALID,17.5118,VALID,167,VALID,0.491797,
1999-12-11, 00:59:00,VALID,0,VALID,97.7444,VALID,0.0679233,VALID,17.4892,VALID,172,VALID,0.49292,
1999-12-11, 01:00:00,VALID,0,VALID,97.8385,VALID,0.0849042,VALID,17.4762,VALID,203,VALID,0.249578,
1999-12-11, 01:01:00,VALID,0,VALID,97.925,VALID,0.0509425,VALID,17.4764,VALID,205,VALID,0.144848,
1999-12-11, 01:02:00,VALID,0,VALID,97.7877,VALID,0.0509425,VALID,17.4825,VALID,195,VALID,0.192057,
1999-12-11, 01:03:00,VALID,0,VALID,97.4075,VALID,0.0339617,VALID,17.4504,VALID,167,VALID,0,
1999-12-11, 01:04:00,VALID,0,VALID,97.3108,VALID,0.0509425,VALID,17.4045,VALID,167,VALID,0,
1999-12-11, 01:05:00,VALID,0,VALID,97.5562,VALID,0.0509425,VALID,17.3761,VALID,172,VALID,0,
1999-12-11, 01:06:00,VALID,0,VALID,97.8474,VALID,0.0849042,VALID,17.3823,VALID,181,VALID,0,
1999-12-11, 01:07:00,VALID,0,VALID,97.8894,VALID,0.0849042,VALID,17.3502,VALID,178,VALID,0,
1999-12-11, 01:08:00,VALID,0,VALID,97.9517,VALID,0.0679233,VALID,17.3506,VALID,167,VALID,0,
1999-12-11, 01:09:00,VALID,0,VALID,98.0979,VALID,0.0849042,VALID,17.3364,VALID,162,VALID,0,
1999-12-11, 01:10:00,VALID,0,VALID,98.2607,VALID,0.0679233,VALID,17.3761,VALID,160,VALID,0,
1999-12-11, 01:11:00,VALID,0,VALID,98.0522,VALID,0.0169808,VALID,17.3661,VALID,160,VALID,0,
1999-12-11, 01:12:00,VALID,0,VALID,97.6236,VALID,0.0509425,VALID,17.3248,VALID,160,VALID,0,
1999-12-11, 01:13:00,VALID,0,VALID,97.7114,VALID,-0.0169808,VALID,17.3192,VALID,159,VALID,0.780273,
1999-12-11, 01:14:00,VALID,0,VALID,98.4616,VALID,0,VALID,17.3638,VALID,167,VALID,0.979688,
1999-12-11, 01:15:00,VALID,0,VALID,98.6765,VALID,-0.0679233,VALID,17.4452,VALID,169,VALID,0.921631,
1999-12-11, 01:16:00,VALID,0,VALID,98.6307,VALID,-0.0679233,VALID,17.5163,VALID,168,VALID,0.881968,
1999-12-11, 01:17:00,VALID,0,VALID,98.4781,VALID,-0.0849042,VALID,17.5838,VALID,163,VALID,0.797508,
1999-12-11, 01:18:00,VALID,0,VALID,98.1463,VALID,-0.0339617,VALID,17.6549,VALID,162,VALID,0.553602,
1999-12-11, 01:19:00,VALID,0,VALID,97.7813,VALID,0,VALID,17.6971,VALID,173,VALID,0.150549,
1999-12-11, 01:20:00,VALID,0,VALID,97.0171,VALID,-0.0169808,VALID,17.7135,VALID,173,VALID,0.116071,
1999-12-11, 01:21:00,VALID,0,VALID,96.0125,VALID,-0.0339617,VALID,17.7005,VALID,173,VALID,0.185937,
1999-12-11, 01:22:00,VALID,0,VALID,95.3513,VALID,-0.0509425,VALID,17.6551,VALID,173,VALID,0,
1999-12-11, 01:23:00,VALID,0,VALID,96.0608,VALID,-0.0849042,VALID,17.6098,VALID,172,VALID,0,
1999-12-11, 01:24:00,VALID,0,VALID,96.717,VALID,-0.0169808,VALID,17.5973,VALID,172,VALID,0,
1999-12-11, 01:25:00,VALID,0,VALID,96.923,VALID,-0.0849042,VALID,17.578,VALID,188,VALID,0,
1999-12-11, 01:26:00,VALID,0,VALID,96.8861,VALID,-0.0679233,VALID,17.5454,VALID,189,VALID,0,
1999-12-11, 01:27:00,VALID,0,VALID,97.04,VALID,-0.0339617,VALID,17.5288,VALID,188,VALID,0,
1999-12-11, 01:28:00,VALID,0,VALID,97.2243,VALID,0,VALID,17.5323,VALID,185,VALID,0,
1999-12-11, 01:29:00,VALID,0,VALID,97.1061,VALID,0.0339617,VALID,17.4926,VALID,185,VALID,0,
1999-12-11, 01:30:00,VALID,0,VALID,96.8365,VALID,0.0169808,VALID,17.4338,VALID,165,VALID,0.183984,
1999-12-11, 01:31:00,VALID,0,VALID,96.1715,VALID,0.0509425,VALID,17.3407,VALID,151,VALID,0.534668,
1999-12-11, 01:32:00,VALID,0,VALID,96.3533,VALID,0,VALID,17.2824,VALID,151,VALID,0.352618,
1999-12-11, 01:33:00,VALID,0,VALID,96.8403,VALID,0.0169808,VALID,17.25,VALID,151,VALID,0.0561655,
1999-12-11, 01:34:00,VALID,0,VALID,97.5461,VALID,0.0509425,VALID,17.2759,VALID,161,VALID,0,
1999-12-11, 01:35:01,VALID,0,VALID,97.8156,VALID,0.0509425,VALID,17.289,VALID,171,VALID,0.0152027,
1999-12-11, 01:36:00,VALID,0,VALID,98.0445,VALID,0,VALID,17.2989,VALID,196,VALID,0.575223,
1999-12-11, 01:37:00,VALID,0,VALID,98.1717,VALID,0.0169808,VALID,17.2985,VALID,190,VALID,0.664844,
1999-12-11, 01:38:00,VALID,0,VALID,98.5748,VALID,0,VALID,17.3599,VALID,174,VALID,0.816016,
1999-12-11, 01:39:00,VALID,0,VALID,98.5252,VALID,0,VALID,17.4377,VALID,170,VALID,0.749268,
1999-12-11, 01:40:00,VALID,0,VALID,98.1564,VALID,-0.0169808,VALID,17.4827,VALID,184,VALID,0.30891,
1999-12-11, 01:41:00,VALID,0,VALID,97.5995,VALID,0,VALID,17.4864,VALID,228,VALID,0.576225,
1999-12-11, 01:42:00,VALID,0,VALID,97.5143,VALID,0.0339617,VALID,17.5023,VALID,225,VALID,1.02517,
1999-12-11, 01:43:00,VALID,0,VALID,97.7521,VALID,0,VALID,17.5381,VALID,222,VALID,1.06018,
1999-12-11, 01:44:00,VALID,0,VALID,97.7571,VALID,0.0169808,VALID,17.554,VALID,223,VALID,1.0317,
1999-12-11, 01:45:00,VALID,0,VALID,97.8665,VALID,0.0509425,VALID,17.5992,VALID,215,VALID,1.15879,
1999-12-11, 01:46:00,VALID,0,VALID,97.8207,VALID,0.0339617,VALID,17.6216,VALID,191,VALID,0.503078,
1999-12-11, 01:47:00,VALID,0,VALID,97.574,VALID,0,VALID,17.6186,VALID,174,VALID,0.520264,
1999-12-11, 01:48:00,VALID,0,VALID,96.9153,VALID,0.0169808,VALID,17.5771,VALID,151,VALID,0.780828,
1999-12-11, 01:49:00,VALID,0,VALID,97.0412,VALID,0,VALID,17.5443,VALID,146,VALID,0.927365,
1999-12-11, 01:50:00,VALID,0,VALID,97.5321,VALID,0.0169808,VALID,17.5704,VALID,153,VALID,0.834852,
1999-12-11, 01:51:00,VALID,0,VALID,97.7076,VALID,0,VALID,17.6023,VALID,162,VALID,0.756123,
1999-12-11, 01:52:00,VALID,0,VALID,97.6173,VALID,0.0169808,VALID,17.6699,VALID,173,VALID,0.722098,
1999-12-11, 01:53:00,VALID,0,VALID,97.2129,VALID,0.0339617,VALID,17.699,VALID,179,VALID,0.721484,
1999-12-11, 01:54:00,VALID,0,VALID,96.8327,VALID,0.0679233,VALID,17.7412,VALID,201,VALID,0.573047,
1999-12-11, 01:55:00,VALID,0,VALID,96.5618,VALID,0.0339617,VALID,17.738,VALID,205,VALID,0.640137,
1999-12-11, 01:56:00,VALID,0,VALID,96.5199,VALID,0.0509425,VALID,17.722,VALID,198,VALID,0.763091,
1999-12-11, 01:57:00,VALID,0,VALID,96.9967,VALID,0,VALID,17.7154,VALID,188,VALID,0.810177,
1999-12-11, 01:58:00,VALID,0,VALID,96.9802,VALID,-0.0849042,VALID,17.7202,VALID,188,VALID,0.646484,
1999-12-11, 01:59:00,VALID,0,VALID,97.0183,VALID,-0.0169808,VALID,17.71,VALID,200,VALID,0.552365,
1999-12-11, 02:00:00,VALID,0,VALID,97.0044,VALID,-0.0509425,VALID,17.7038,VALID,194,VALID,0.626116,
1999-12-11, 02:01:00,VALID,0,VALID,97.1404,VALID,-0.0339617,VALID,17.6973,VALID,178,VALID,0.716016,
1999-12-11, 02:02:00,VALID,0,VALID,97.0984,VALID,-0.0509425,VALID,17.7033,VALID,165,VALID,0.725,
1999-12-11, 02:03:00,VALID,0,VALID,96.9789,VALID,-0.0679233,VALID,17.7331,VALID,162,VALID,0.859375,
1999-12-11, 02:04:00,VALID,0,VALID,96.8263,VALID,-0.0509425,VALID,17.7165,VALID,161,VALID,0.858742,
1999-12-11, 02:05:00,VALID,0,VALID,96.5987,VALID,-0.0679233,VALID,17.7072,VALID,157,VALID,0.740709,
1999-12-11, 02:06:00,VALID,0,VALID,96.6865,VALID,-0.0339617,VALID,17.7038,VALID,159,VALID,0.632595,
1999-12-11, 02:07:01,VALID,0,VALID,96.7322,VALID,-0.0849042,VALID,17.7202,VALID,163,VALID,0.677154,
1999-12-11, 02:08:00,VALID,0,VALID,96.7043,VALID,-0.0679233,VALID,17.7361,VALID,164,VALID,0.585491,
1999-12-11, 02:09:00,VALID,0,VALID,96.1943,VALID,-0.0509425,VALID,17.7232,VALID,190,VALID,0.391211,
1999-12-11, 02:10:00,VALID,0,VALID,95.4797,VALID,-0.0339617,VALID,17.6814,VALID,217,VALID,0.603125,
1999-12-11, 02:11:00,VALID,0,VALID,95.7099,VALID,-0.0679233,VALID,17.6297,VALID,206,VALID,0.741211,
1999-12-11, 02:12:00,VALID,0,VALID,96.3736,VALID,-0.0509425,VALID,17.581,VALID,200,VALID,0.870144,
1999-12-11, 02:13:00,VALID,0,VALID,97.0361,VALID,0.0339617,VALID,17.554,VALID,199,VALID,0.94299,
1999-12-11, 02:14:00,VALID,0,VALID,97.396,VALID,0.0339617,VALID,17.5635,VALID,194,VALID,0.849175,
1999-12-11, 02:15:00,VALID,0,VALID,97.3451,VALID,0.0169808,VALID,17.5796,VALID,186,VALID,0.726985,
1999-12-11, 02:16:00,VALID,0,VALID,97.2917,VALID,0.0169808,VALID,17.6059,VALID,174,VALID,0.829018,
1999-12-11, 02:17:00,VALID,0,VALID,97.2104,VALID,0,VALID,17.6378,VALID,168,VALID,1.01094,
1999-12-11, 02:18:00,VALID,0,VALID,96.6407,VALID,0,VALID,17.6673,VALID,168,VALID,0.767578,
1999-12-11, 02:19:00,VALID,0,VALID,96.2884,VALID,0,VALID,17.6609,VALID,164,VALID,0.61499,
1999-12-11, 02:20:00,VALID,0,VALID,96.3139,VALID,0.0339617,VALID,17.5988,VALID,162,VALID,0.681588,
1999-12-11, 02:21:00,VALID,0,VALID,96.3126,VALID,0,VALID,17.5473,VALID,159,VALID,0.903083,
1999-12-11, 02:22:00,VALID,0,VALID,96.572,VALID,0,VALID,17.5116,VALID,163,VALID,0.81901,
1999-12-11, 02:23:00,VALID,0,VALID,97.0565,VALID,0,VALID,17.5279,VALID,166,VALID,0.8731,
1999-12-11, 02:24:00,VALID,0,VALID,96.9103,VALID,0,VALID,17.5314,VALID,161,VALID,0.751562,
1999-12-11, 02:25:00,VALID,0,VALID,96.4359,VALID,0,VALID,17.4961,VALID,154,VALID,0.633594,
1999-12-11, 02:26:00,VALID,0,VALID,96.1689,VALID,0,VALID,17.4538,VALID,153,VALID,0.384375,
1999-12-11, 02:27:00,VALID,0,VALID,96.6852,VALID,0.0339617,VALID,17.4314,VALID,157,VALID,0.105469,
1999-12-11, 02:28:00,VALID,0,VALID,97.0794,VALID,0.0339617,VALID,17.4215,VALID,170,VALID,0,
1999-12-11, 02:29:00,VALID,0,VALID,97.3134,VALID,0,VALID,17.4054,VALID,187,VALID,0,
1999-12-11, 02:30:01,VALID,0,VALID,97.6732,VALID,0.0339617,VALID,17.4413,VALID,173,VALID,0.000217014,
1999-12-11, 02:31:00,VALID,0,VALID,97.0336,VALID,0,VALID,17.428,VALID,162,VALID,0.613809,
1999-12-11, 02:32:00,VALID,0,VALID,96.806,VALID,0.0339617,VALID,17.4021,VALID,154,VALID,0.740848,
1999-12-11, 02:33:00,VALID,0,VALID,97.3744,VALID,0.0169808,VALID,17.4215,VALID,149,VALID,0.918945,
1999-12-11, 02:34:00,VALID,0,VALID,97.6592,VALID,0.0169808,VALID,17.4635,VALID,161,VALID,0.953125,
1999-12-11, 02:35:00,VALID,0,VALID,97.8843,VALID,0,VALID,17.5189,VALID,167,VALID,0.979736,
1999-12-11, 02:36:00,VALID,0,VALID,97.4532,VALID,0.0169808,VALID,17.5637,VALID,161,VALID,0.783361,
1999-12-11, 02:37:00,VALID,0,VALID,96.5415,VALID,0,VALID,17.5575,VALID,151,VALID,0.507813,
1999-12-11, 02:38:00,VALID,0,VALID,95.7633,VALID,0.0169808,VALID,17.5118,VALID,150,VALID,0.0993924,
1999-12-11, 02:39:00,VALID,0,VALID,95.4479,VALID,0.0169808,VALID,17.4702,VALID,150,VALID,0,
1999-12-11, 02:40:00,VALID,0,VALID,95.8714,VALID,0,VALID,17.4577,VALID,150,VALID,0.18192,
1999-12-11, 02:41:01,VALID,0,VALID,96.5873,VALID,0.0509425,VALID,17.4312,VALID,159,VALID,0.166797,
1999-12-11, 02:42:00,VALID,0,VALID,97.4049,VALID,0.0169808,VALID,17.4383,VALID,164,VALID,0,
1999-12-11, 02:43:00,VALID,0,VALID,97.5384,VALID,0,VALID,17.4541,VALID,172,VALID,0,
1999-12-11, 02:44:00,VALID,0,VALID,97.3718,VALID,-0.0169808,VALID,17.4995,VALID,173,VALID,0,
1999-12-11, 02:45:00,VALID,0,VALID,96.9281,VALID,0,VALID,17.506,VALID,178,VALID,0,
1999-12-11, 02:46:00,VALID,0,VALID,96.572,VALID,0,VALID,17.5055,VALID,182,VALID,0,
1999-12-11, 02:47:00,VALID,0,VALID,96.1829,VALID,0.0169808,VALID,17.4933,VALID,182,VALID,0,
1999-12-11, 02:48:00,VALID,0,VALID,95.9133,VALID,0.0169808,VALID,17.451,VALID,182,VALID,0,
1999-12-11, 02:49:00,VALID,0,VALID,95.9273,VALID,0.0169808,VALID,17.4023,VALID,182,VALID,0,
1999-12-11, 02:50:00,VALID,0,VALID,96.1269,VALID,0,VALID,17.3509,VALID,198,VALID,0,
1999-12-11, 02:51:00,VALID,0,VALID,96.4131,VALID,0.0169808,VALID,17.3089,VALID,202,VALID,0,
1999-12-11, 02:52:01,VALID,0,VALID,96.7627,VALID,0,VALID,17.2662,VALID,203,VALID,0,
1999-12-11, 02:53:00,VALID,0,VALID,96.9052,VALID,0,VALID,17.241,VALID,203,VALID,0,
1999-12-11, 02:54:00,VALID,0,VALID,97.0832,VALID,-0.0169808,VALID,17.2156,VALID,195,VALID,0,
1999-12-11, 02:55:00,VALID,0,VALID,97.1341,VALID,0,VALID,17.1863,VALID,184,VALID,0,
1999-12-11, 02:56:00,VALID,0,VALID,97.1938,VALID,-0.0169808,VALID,17.1471,VALID,184,VALID,0,
1999-12-11, 02:57:00,VALID,0,VALID,97.2409,VALID,0.0169808,VALID,17.1307,VALID,184,VALID,0,
1999-12-11, 02:58:00,VALID,0,VALID,96.9064,VALID,-0.0169808,VALID,17.0988,VALID,175,VALID,0,
1999-12-11, 02:59:00,VALID,0,VALID,96.3889,VALID,0.0169808,VALID,17.0217,VALID,116,VALID,0,
1999-12-11, 03:00:00,VALID,0,VALID,96.3151,VALID,0.0169808,VALID,16.9177,VALID,109,VALID,0,
1999-12-11, 03:01:00,VALID,0,VALID,97.7165,VALID,0.0169808,VALID,16.9704,VALID,122,VALID,0.793074,
1999-12-11, 03:02:00,VALID,0,VALID,98.1869,VALID,0.0169808,VALID,16.9954,VALID,127,VALID,1.10026,
1999-12-11, 03:03:01,VALID,0,VALID,98.3052,VALID,-0.0169808,VALID,17.0407,VALID,140,VALID,1.13471,
1999-12-11, 03:04:00,VALID,0,VALID,98.5684,VALID,0,VALID,17.1471,VALID,141,VALID,1.28728,
1999-12-11, 03:05:00,VALID,0,VALID,98.3154,VALID,0.0169808,VALID,17.2057,VALID,149,VALID,1.0498,
1999-12-11, 03:06:00,VALID,0,VALID,98.2658,VALID,0.0339617,VALID,17.2701,VALID,154,VALID,1.00879,
1999-12-11, 03:07:00,VALID,0,VALID,97.7508,VALID,0,VALID,17.3091,VALID,158,VALID,0.693604,
1999-12-11, 03:08:00,VALID,0,VALID,97.4774,VALID,0.0169808,VALID,17.3511,VALID,165,VALID,0.696157,
1999-12-11, 03:09:00,VALID,0,VALID,97.265,VALID,0.0169808,VALID,17.3728,VALID,177,VALID,0.707137,
1999-12-11, 03:10:00,VALID,0,VALID,96.97,VALID,0.0509425,VALID,17.3931,VALID,205,VALID,0.948568,
1999-12-11, 03:11:00,VALID,0,VALID,96.5936,VALID,0,VALID,17.3894,VALID,218,VALID,0.993877,
1999-12-11, 03:12:00,VALID,0,VALID,96.6318,VALID,0,VALID,17.3767,VALID,220,VALID,1.06228,
1999-12-11, 03:13:00,VALID,0,VALID,97.0323,VALID,-0.0849042,VALID,17.3946,VALID,202,VALID,0.970312,
1999-12-11, 03:14:01,VALID,0,VALID,97.2256,VALID,-0.101885,VALID,17.4106,VALID,178,VALID,0.897461,
1999-12-11, 03:15:00,VALID,0,VALID,96.7691,VALID,-0.0679233,VALID,17.4231,VALID,163,VALID,0.98877,
1999-12-11, 03:16:00,VALID,0,VALID,96.956,VALID,-0.0849042,VALID,17.4653,VALID,170,VALID,0.986064,
1999-12-11, 03:17:00,VALID,0,VALID,96.8543,VALID,-0.101885,VALID,17.4814,VALID,180,VALID,0.696579,
1999-12-11, 03:18:00,VALID,0,VALID,96.5809,VALID,-0.0849042,VALID,17.4911,VALID,182,VALID,0.565104,
1999-12-11, 03:19:00,VALID,0,VALID,96.455,VALID,-0.0849042,VALID,17.4914,VALID,188,VALID,0.572213,
1999-12-11, 03:20:00,VALID,0,VALID,96.4817,VALID,-0.0849042,VALID,17.4713,VALID,197,VALID,0.66808,
1999-12-11, 03:21:00,VALID,0,VALID,96.525,VALID,-0.101885,VALID,17.459,VALID,199,VALID,0.24082,
1999-12-11, 03:22:00,VALID,0,VALID,96.3075,VALID,-0.0849042,VALID,17.4362,VALID,159,VALID,0,
1999-12-11, 03:23:00,VALID,0,VALID,95.7582,VALID,-0.0849042,VALID,17.3849,VALID,155,VALID,0,
1999-12-11, 03:24:00,VALID,0,VALID,95.5433,VALID,-0.101885,VALID,17.3007,VALID,155,VALID,0,
1999-12-11, 03:25:01,VALID,0,VALID,96.5211,VALID,-0.118866,VALID,17.2718,VALID,155,VALID,0,
1999-12-11, 03:26:00,VALID,0,VALID,96.249,VALID,-0.0849042,VALID,17.1971,VALID,152,VALID,0.174696,
1999-12-11, 03:27:00,VALID,0,VALID,95.9044,VALID,-0.101885,VALID,17.1296,VALID,148,VALID,0.376056,
1999-12-11, 03:28:00,VALID,0,VALID,96.5211,VALID,0,VALID,17.0695,VALID,148,VALID,0.336161,
1999-12-11, 03:29:00,VALID,0,VALID,97.3477,VALID,0,VALID,17.0697,VALID,148,VALID,0.64668,
1999-12-11, 03:30:00,VALID,0,VALID,97.4583,VALID,0,VALID,17.0439,VALID,138,VALID,0.716406,
1999-12-11, 03:31:00,VALID,0,VALID,97.5613,VALID,0,VALID,17.0577,VALID,142,VALID,0.746094,
1999-12-11, 03:32:00,VALID,0,VALID,98.0496,VALID,0.0169808,VALID,17.1184,VALID,158,VALID,0.906672,
1999-12-11, 03:33:00,VALID,0,VALID,97.7406,VALID,0,VALID,17.1955,VALID,174,VALID,1.09903,
1999-12-11, 03:34:00,VALID,0,VALID,96.9942,VALID,0.0169808,VALID,17.2925,VALID,193,VALID,0.929036,
1999-12-11, 03:35:01,VALID,0,VALID,96.4957,VALID,0,VALID,17.3442,VALID,218,VALID,0.429476,
1999-12-11, 03:36:01,VALID,0,VALID,96.1422,VALID,0,VALID,17.3636,VALID,227,VALID,0.0357143,
1999-12-11, 03:37:00,VALID,0,VALID,96.0252,VALID,0.0169808,VALID,17.3603,VALID,201,VALID,0.463672,
1999-12-11, 03:38:00,VALID,0,VALID,96.4143,VALID,0,VALID,17.3705,VALID,192,VALID,0.967383,
1999-12-11, 03:39:00,VALID,0,VALID,96.0303,VALID,0.0169808,VALID,17.3347,VALID,153,VALID,0.773438,
1999-12-11, 03:40:00,VALID,0,VALID,96.4194,VALID,0.0339617,VALID,17.302,VALID,151,VALID,0.695735,
1999-12-11, 03:41:00,VALID,0,VALID,96.0112,VALID,0,VALID,17.2475,VALID,154,VALID,0.27386,
1999-12-11, 03:42:00,VALID,0,VALID,96.2325,VALID,0,VALID,17.2285,VALID,181,VALID,0.25803,
1999-12-11, 03:43:00,VALID,0,VALID,96.3291,VALID,0.0169808,VALID,17.1826,VALID,181,VALID,0.0323057,
1999-12-11, 03:44:00,VALID,0,VALID,96.5275,VALID,0,VALID,17.1477,VALID,200,VALID,0.302232,
1999-12-11, 03:45:00,VALID,0,VALID,96.8149,VALID,0,VALID,17.1316,VALID,252,VALID,0.50957,
1999-12-11, 03:46:00,VALID,0,VALID,97.4876,VALID,0.0339617,VALID,17.1634,VALID,236,VALID,0.713086,
1999-12-11, 03:47:01,VALID,0,VALID,97.1938,VALID,0.0509425,VALID,17.2151,VALID,208,VALID,0.479248,
1999-12-11, 03:48:00,VALID,0,VALID,97.1341,VALID,0.0339617,VALID,17.2604,VALID,206,VALID,0.446579,
1999-12-11, 03:49:00,VALID,0,VALID,96.0685,VALID,0.0339617,VALID,17.25,VALID,199,VALID,0.52576,
1999-12-11, 03:50:00,VALID,0,VALID,95.9209,VALID,0.0339617,VALID,17.2666,VALID,184,VALID,0.485677,
1999-12-11, 03:51:00,VALID,0,VALID,95.9349,VALID,0.0339617,VALID,17.2179,VALID,176,VALID,0.119299,
1999-12-11, 03:52:00,VALID,0,VALID,96.3317,VALID,0.0339617,VALID,17.1824,VALID,182,VALID,0.444866,
1999-12-11, 03:53:00,VALID,0,VALID,96.6178,VALID,0.0169808,VALID,17.1372,VALID,191,VALID,0.471875,
1999-12-11, 03:54:00,VALID,0,VALID,96.7678,VALID,0.0339617,VALID,17.0827,VALID,195,VALID,0.516211,
1999-12-11, 03:55:00,VALID,0,VALID,97.1302,VALID,0.0509425,VALID,17.0273,VALID,191,VALID,0.616455,
1999-12-11, 03:56:00,VALID,0,VALID,97.5206,VALID,0.0339617,VALID,16.9952,VALID,192,VALID,0.680954,
1999-12-11, 03:57:00,VALID,0,VALID,97.6567,VALID,0.0169808,VALID,16.9694,VALID,191,VALID,0.554688,
1999-12-11, 03:58:00,VALID,0,VALID,97.6109,VALID,-0.101885,VALID,16.945,VALID,188,VALID,0.338325,
1999-12-11, 03:59:00,VALID,0,VALID,97.5372,VALID,-0.0849042,VALID,16.9194,VALID,203,VALID,0.339949,
1999-12-11, 04:00:00,VALID,0,VALID,97.6084,VALID,-0.101885,VALID,16.8739,VALID,202,VALID,0.926116,
1999-12-11, 04:01:00,VALID,0,VALID,98.3968,VALID,-0.101885,VALID,16.9487,VALID,198,VALID,1.29121,
1999-12-11, 04:02:00,VALID,0,VALID,98.2861,VALID,-0.101885,VALID,17.0613,VALID,195,VALID,1.29102,
1999-12-11, 04:03:00,VALID,0,VALID,97.7343,VALID,-0.0679233,VALID,17.1585,VALID,207,VALID,0.873779,
1999-12-11, 04:04:00,VALID,0,VALID,97.2727,VALID,-0.0849042,VALID,17.2294,VALID,214,VALID,0.535473,
1999-12-11, 04:05:00,VALID,0,VALID,97.0349,VALID,-0.101885,VALID,17.2651,VALID,197,VALID,0.765414,
1999-12-11, 04:06:00,VALID,0,VALID,96.7132,VALID,-0.0849042,VALID,17.2847,VALID,191,VALID,0.713542,
1999-12-11, 04:07:01,VALID,0,VALID,96.3889,VALID,-0.0849042,VALID,17.2746,VALID,205,VALID,0.678421,